{"data":{"norad_id":67662,"intl_designator":"2026-022Q","name":"STARLINK-36700","alt_names":[],"object_type":"PAYLOAD","status":"ACTIVE","operator":null,"country":"US","launch_date":"2026-02-02","launch_site_code":"AFWTR","launch_vehicle":null,"mission":null,"orbit_class":"UNKNOWN","rcs_meters":null,"size_class":null,"mass_kg":null,"dimensions":null,"purposes":["comms"],"wikipedia_slug":null,"has_3d_model":false,"image_url":null,"decayed_at":null,"tle_current":{"epoch":"2026-09-19T15:55:56.156160Z","epoch_age_seconds":141224,"freshness":"FRESH","line1":"1 67662U 26022Q   26262.66384440  .00021795  00000+0  67492-3 0  9996","line2":"2 67662  97.2858 294.3112 0000175 125.3123 234.8137 15.33471345 35305","mean_motion":15.33471345,"eccentricity":1.75e-5,"inclination_deg":97.2858,"raan_deg":294.3112,"arg_perigee_deg":125.3123,"mean_anomaly_deg":234.8137,"bstar":0.00067492,"rev_number":3530,"period_min":93.904591350548,"perigee_km":465.34502838427,"apogee_km":465.58455444697,"semimajor_km":6843.6017914156,"source":"CELESTRAK","updated_at":"2026-09-20T09:00:43.622421Z"}}}